• In Russia
  • List of Countries
  • For 7 days
  • Water Temperature
  • Satellite Maps
  • Weather Map
  • Weather Widgets
  • user-avatar
    Login

    Hourly Weather Klagenfurt

    Today, 23 May, Tuesday

    Time Temperature Precipitation Wind Pressure Humidity
    00:00 +10°C° 0.1 mm 1 mps 690 mmHg 94%
    01:00 +9°C° 0.1 mm 1 mps 690 mmHg 94%
    02:00 +9°C° 0.1 mm 1 mps 690 mmHg 94%
    03:00 +8°C° 0.1 mm 1 mps 689 mmHg 94%
    04:00 +8°C° 0.1 mm 1 mps 689 mmHg 94%
    05:00 +10°C° 0 mm 1 mps 690 mmHg 90%
    06:00 +12°C° 0 mm 1 mps 691 mmHg 86%
    07:00 +14°C° 0 mm 1 mps 691 mmHg 83%
    08:00 +18°C° 0 mm 1 mps 692 mmHg 70%
    09:00 +18°C° 0 mm 0 mps 692 mmHg 58%
    10:00 +21°C° 0 mm 0 mps 693 mmHg 45%
    11:00 +23°C° 0 mm 1 mps 693 mmHg 43%
    12:00 +24°C° 0 mm 1 mps 693 mmHg 40%
    13:00 +25°C° 0 mm 1 mps 692 mmHg 38%
    14:00 +24°C° 0.1 mm 1 mps 692 mmHg 41%
    15:00 +24°C° 0.1 mm 1 mps 692 mmHg 44%
    16:00 +23°C° 0.1 mm 1 mps 691 mmHg 47%
    17:00 +21°C° 0.2 mm 1 mps 691 mmHg 57%
    18:00 +19°C° 0.2 mm 1 mps 691 mmHg 68%
    19:00 +15°C° 0.2 mm 1 mps 691 mmHg 79%
    20:00 +14°C° 0 mm 1 mps 691 mmHg 83%
    21:00 +12°C° 0 mm 1 mps 691 mmHg 87%
    22:00 +10°C° 0 mm 1 mps 691 mmHg 91%
    23:00 +10°C° 0 mm 1 mps 691 mmHg 91%

    Tomorrow, 24 May, Wednesday

    Time Temperature Precipitation Wind Pressure Humidity
    00:00 +9°C° 0 mm 1 mps 691 mmHg 91%
    01:00 +9°C° 0 mm 1 mps 691 mmHg 91%
    02:00 +9°C° 0 mm 1 mps 690 mmHg 90%
    03:00 +9°C° 0 mm 1 mps 690 mmHg 89%
    04:00 +9°C° 0 mm 1 mps 690 mmHg 89%
    05:00 +11°C° 0 mm 1 mps 691 mmHg 83%
    06:00 +13°C° 0 mm 1 mps 691 mmHg 77%
    07:00 +16°C° 0 mm 1 mps 692 mmHg 70%
    08:00 +18°C° 0 mm 1 mps 692 mmHg 64%
    09:00 +20°C° 0 mm 1 mps 693 mmHg 57%
    10:00 +22°C° 0 mm 1 mps 693 mmHg 50%
    11:00 +23°C° 0.1 mm 1 mps 693 mmHg 49%
    12:00 +23°C° 0.1 mm 1 mps 693 mmHg 48%
    13:00 +24°C° 0.1 mm 1 mps 693 mmHg 47%
    14:00 +23°C° 0.5 mm 1 mps 693 mmHg 50%
    15:00 +22°C° 0.5 mm 1 mps 692 mmHg 54%
    16:00 +21°C° 0.5 mm 1 mps 692 mmHg 58%
    17:00 +20°C° 0.3 mm 1 mps 692 mmHg 65%
    18:00 +18°C° 0.3 mm 1 mps 692 mmHg 71%
    19:00 +15°C° 0.3 mm 1 mps 692 mmHg 78%
    20:00 +13°C° 0 mm 1 mps 692 mmHg 82%
    21:00 +12°C° 0 mm 1 mps 692 mmHg 86%
    22:00 +10°C° 0 mm 1 mps 692 mmHg 90%
    23:00 +9°C° 0 mm 1 mps 692 mmHg 90%

    Day after tomorrow, 25 May, Thursday

    Time Temperature Precipitation Wind Pressure Humidity
    00:00 +9°C° 0 mm 1 mps 691 mmHg 91%
    01:00 +9°C° 0 mm 1 mps 691 mmHg 92%
    02:00 +8°C° 0 mm 1 mps 691 mmHg 92%
    03:00 +8°C° 0 mm 1 mps 690 mmHg 92%
    04:00 +8°C° 0 mm 1 mps 690 mmHg 92%
    05:00 +10°C° 0 mm 1 mps 690 mmHg 87%
    06:00 +12°C° 0 mm 1 mps 690 mmHg 82%
    07:00 +13°C° 0 mm 1 mps 690 mmHg 78%
    08:00 +14°C° 0.2 mm 1 mps 690 mmHg 75%
    09:00 +15°C° 0.2 mm 1 mps 690 mmHg 73%
    10:00 +16°C° 0.2 mm 1 mps 691 mmHg 70%
    11:00 +16°C° 0.3 mm 2 mps 691 mmHg 64%
    12:00 +17°C° 0.3 mm 3 mps 691 mmHg 58%
    13:00 +18°C° 0.3 mm 3 mps 691 mmHg 52%
    14:00 +18°C° 0 mm 3 mps 691 mmHg 49%
    15:00 +18°C° 0 mm 3 mps 691 mmHg 46%
    16:00 +18°C° 0 mm 3 mps 691 mmHg 43%
    17:00 +16°C° 0 mm 3 mps 691 mmHg 51%
    18:00 +14°C° 0 mm 2 mps 691 mmHg 60%
    19:00 +13°C° 0 mm 2 mps 691 mmHg 68%
    20:00 +11°C° 0 mm 1 mps 691 mmHg 74%
    21:00 +9°C° 0 mm 1 mps 691 mmHg 80%
    22:00 +7°C° 0 mm 1 mps 691 mmHg 86%
    23:00 +7°C° 0 mm 1 mps 691 mmHg 87%

    26 May, Friday

    Time Temperature Precipitation Wind Pressure Humidity
    00:00 +6°C° 0 mm 1 mps 691 mmHg 89%
    01:00 +6°C° 0 mm 1 mps 690 mmHg 91%
    02:00 +5°C° 0 mm 1 mps 690 mmHg 91%
    03:00 +5°C° 0 mm 1 mps 690 mmHg 91%
    04:00 +5°C° 0 mm 1 mps 690 mmHg 91%
    05:00 +8°C° 0 mm 1 mps 690 mmHg 83%
    06:00 +10°C° 0 mm 1 mps 691 mmHg 74%
    07:00 +13°C° 0 mm 1 mps 691 mmHg 66%
    08:00 +15°C° 0 mm 1 mps 692 mmHg 59%
    09:00 +18°C° 0 mm 1 mps 692 mmHg 52%
    10:00 +20°C° 0 mm 1 mps 692 mmHg 45%
    11:00 +20°C° 0.1 mm 1 mps 692 mmHg 45%
    12:00 +21°C° 0.1 mm 1 mps 692 mmHg 45%
    13:00 +21°C° 0.1 mm 1 mps 692 mmHg 44%
    14:00 +20°C° 0.1 mm 2 mps 691 mmHg 47%
    15:00 +19°C° 0.1 mm 2 mps 691 mmHg 50%
    16:00 +19°C° 0.1 mm 2 mps 691 mmHg 53%
    17:00 +18°C° 0.1 mm 1 mps 691 mmHg 63%
    18:00 +16°C° 0.1 mm 1 mps 691 mmHg 73%
    19:00 +14°C° 0.1 mm 1 mps 691 mmHg 83%
    20:00 +13°C° 0 mm 1 mps 691 mmHg 86%
    21:00 +11°C° 0 mm 1 mps 691 mmHg 90%
    22:00 +9°C° 0 mm 1 mps 691 mmHg 93%
    23:00 +9°C° 0 mm 1 mps 691 mmHg 93%

    27 May, Saturday

    Time Temperature Precipitation Wind Pressure Humidity
    00:00 +9°C° 0 mm 1 mps 691 mmHg 93%
    01:00 +8°C° 0 mm 1 mps 691 mmHg 93%
    02:00 +8°C° 0 mm 1 mps 691 mmHg 93%
    03:00 +7°C° 0 mm 1 mps 691 mmHg 94%
    04:00 +7°C° 0 mm 1 mps 691 mmHg 94%
    05:00 +9°C° 0 mm 1 mps 692 mmHg 88%
    06:00 +11°C° 0 mm 1 mps 692 mmHg 83%
    07:00 +13°C° 0 mm 1 mps 693 mmHg 77%
    08:00 +15°C° 0 mm 1 mps 693 mmHg 67%
    09:00 +17°C° 0 mm 2 mps 694 mmHg 57%
    10:00 +18°C° 0 mm 2 mps 694 mmHg 48%
    11:00 +19°C° 0 mm 2 mps 694 mmHg 47%
    12:00 +19°C° 0 mm 2 mps 694 mmHg 46%
    13:00 +20°C° 0 mm 2 mps 694 mmHg 45%
    14:00 +20°C° 0 mm 2 mps 694 mmHg 46%
    15:00 +19°C° 0 mm 2 mps 694 mmHg 47%
    16:00 +19°C° 0 mm 2 mps 693 mmHg 48%
    17:00 +17°C° 0 mm 2 mps 693 mmHg 57%
    18:00 +16°C° 0 mm 1 mps 693 mmHg 66%
    19:00 +14°C° 0 mm 1 mps 693 mmHg 74%
    20:00 +12°C° 0 mm 1 mps 693 mmHg 79%
    21:00 +10°C° 0 mm 1 mps 693 mmHg 85%
    22:00 +7°C° 0 mm 1 mps 693 mmHg 90%
    23:00 +7°C° 0 mm 1 mps 693 mmHg 90%

    28 May, Sunday

    Time Temperature Precipitation Wind Pressure Humidity
    00:00 +6°C° 0 mm 1 mps 693 mmHg 90%
    01:00 +5°C° 0 mm 1 mps 693 mmHg 90%
    02:00 +5°C° 0 mm 1 mps 693 mmHg 90%
    03:00 +5°C° 0 mm 1 mps 693 mmHg 90%
    04:00 +5°C° 0 mm 1 mps 693 mmHg 90%
    05:00 +7°C° 0 mm 1 mps 694 mmHg 80%
    06:00 +10°C° 0 mm 1 mps 694 mmHg 71%
    07:00 +13°C° 0 mm 1 mps 695 mmHg 61%
    08:00 +15°C° 0 mm 1 mps 696 mmHg 56%
    09:00 +18°C° 0 mm 1 mps 696 mmHg 50%
    10:00 +18°C° 0 mm 2 mps 696 mmHg 45%
    11:00 +19°C° 0 mm 2 mps 696 mmHg 43%
    12:00 +20°C° 0 mm 2 mps 696 mmHg 41%
    13:00 +21°C° 0 mm 2 mps 696 mmHg 40%
    14:00 +21°C° 0 mm 2 mps 696 mmHg 42%
    15:00 +21°C° 0 mm 2 mps 696 mmHg 44%
    16:00 +20°C° 0 mm 2 mps 696 mmHg 46%
    17:00 +18°C° 0 mm 2 mps 695 mmHg 57%
    18:00 +16°C° 0 mm 1 mps 695 mmHg 67%
    19:00 +15°C° 0 mm 1 mps 695 mmHg 78%
    20:00 +12°C° 0 mm 1 mps 694 mmHg 83%
    21:00 +10°C° 0 mm 1 mps 694 mmHg 88%
    22:00 +8°C° 0 mm 1 mps 694 mmHg 93%
    23:00 +7°C° 0 mm 1 mps 694 mmHg 93%
    Show more